Flag for South Africa Weather past 2 weeks in Pretoria, South Africa

Now
46 °F

Cool.


Feels Like: 43 °F
Forecast: 39 / 64 °F
Wind: 7 mph from South

Location: Waterkloof Lmb

Current Time: Jul 26, 2014 at 9:15:05 AM

Latest Report: Jul 26, 2014 at 8:00 AM


Visibility: N/A

Pressure: 30.18 "Hg

Humidity: 57%

Dew point: 32 °F

Location of PretoriaLocation

Historic Weather in Pretoria — Graph

°F

Pretoria temperature yesterday

Maximum temperature yesterday: 72 °F (at 2:00 PM)
Minimum temperature yesterday: 41 °F (at 3:00 AM)
Average temperature yesterday: 56 °F

Past Weeks' High & Low Weather Summary

 TemperatureHumidityPressure
High73 °F (Jul 24, 3:00 PM)87% (Jul 15, 6:00 AM)30.57 "Hg (Jul 15, 6:00 AM)
Low34 °F (Jul 12, 6:00 AM)11% (Jul 19, 3:00 PM)30.09 "Hg (Jul 18, 3:00 PM)
Average52 °F45%30.34 "Hg
* Reported Jul 11 8:00 AM — Jul 26 8:00 AM, Pretoria, Weather by CustomWeather, © 2014

Note: Actual official high and low records may vary slightly from our data, if they occured in-between our weather recording intervals... More about our weather records

Advertising

Pretoria weather history for previous 24 hours

 ConditionsComfort  
Time TempWeatherWind HumidityBarometerVisibility
8:00 AM
Jul 26
46 °FCool.7 mph57%30.18 "HgN/A
7:00 AM37 °FChilly.5 mph70%30.18 "HgN/A
6:00 AM41 °FQuite cool.2 mph57%30.15 "HgN/A
5:00 AM41 °FQuite cool.2 mph57%30.12 "HgN/A
4:00 AM41 °FQuite cool.6 mph61%30.12 "HgN/A
3:00 AM45 °FQuite cool.2 mph57%30.12 "HgN/A
2:00 AM43 °FQuite cool.2 mph57%30.12 "HgN/A
1:00 AM50 °FCool.2 mph37%30.12 "HgN/A
12:00 AM48 °FCool.No wind43%30.15 "HgN/A
11:00 PM
Jul 25
48 °FCool.No wind43%30.15 "HgN/A
10:00 PM52 °FCool.No wind38%30.15 "HgN/A
9:00 PM50 °FCool.2 mph43%30.15 "HgN/A
8:00 PM55 °FRefreshingly cool.No wind36%30.15 "HgN/A
7:00 PM57 °FRefreshingly cool.1 mph31%30.15 "HgN/A
6:00 PM61 °FRefreshingly cool.3 mph27%30.12 "HgN/A
5:00 PM68 °FMild.8 mph20%30.12 "HgN/A
4:00 PM72 °FMild.8 mph19%30.12 "HgN/A
3:00 PM72 °FMild.10 mph19%30.12 "HgN/A
2:00 PM72 °FMild.12 mph17%30.15 "HgN/A
1:00 PM70 °FMild.8 mph20%30.18 "HgN/A
12:00 PM70 °FMild.13 mph20%30.21 "HgN/A
11:00 AM66 °FMild.8 mph24%30.24 "HgN/A
10:00 AM66 °FMild.6 mph22%30.27 "HgN/A
9:00 AM63 °FMild.2 mph25%30.24 "HgN/A
Weather by CustomWeather, © 2014

See weather overviewHow to use our weather pages